Tracking 31027 objects as of 19-Jul-2025
HD Live streaming from Space Station
objects crossing your sky now

COSMOS 2088

Track COSMOS 2088 now!
10-day predictions
COSMOS 2088 is classified as:


NORAD ID: 20720
Int'l Code: 1990-066A
Perigee: 1,490.5 km
Apogee: 1,530.4 km
Inclination: 73.6 °
Period: 116.1 minutes
Semi major axis: 7881 km
RCS: 11.4565 m2 (large)
Launch date: July 30, 1990
Source: Commonwealth of Independent States (former USSR) (CIS)
Launch site: PLESETSK MISSILE AND SPACE COMPLEX (PKMTR)
Your satellite tracking list
SL-8 DEB
Track 1 satellite(s)




NASA's NSSDC Master Catalog

Two Line Element Set (TLE):
1 20720U 90066A   25199.53916503 -.00000016  00000-0  12097-4 0  9991
2 20720  73.5992 118.0538 0025280  16.3674 155.9791 12.40776182583762
Source of the keplerian elements: AFSPC